Regional Weather Roundup
Issued by NWS

Home | Current Version | Previous Version | Text Only | Print | Product List | Glossary Off
Versions: 1 2 3 4 5 6 7 8 9 10 11 12 13 14 15 16 17 18 19 20 21 22 23 24 25 26 27 28 29 30 31 32 33 34 35 36 37 38 39 40 41 42 43 44 45 46 47 48 49 50

000
ASUS43 KBIS 261101
RWRND

NORTH DAKOTA REGIONAL WEATHER ROUNDUP
NATIONAL WEATHER SERVICE BISMARCK ND
500 AM CST MON JAN 26 2015

NOTE: "FAIR" INDICATES FEW OR NO CLOUDS BELOW 12,000 FEET WITH NO
SIGNIFICANT WEATHER AND/OR OBSTRUCTIONS TO VISIBILITY.


NDZ001>003-009>011-017-261200-
NORTHWEST NORTH DAKOTA

CITY           SKY/WX    TMP DP  RH WIND       PRES   REMARKS
WILLISTON      CLOUDY    40  31  70 SW7       29.90R
MINOT          PTCLDY    37  30  75 W14       29.79R
MINOT AFB      PTCLDY    37  35  93 NW18      29.78R
$$

NDZ018>021-031>035-040>046-261200-
SOUTHWEST NORTH DAKOTA

CITY           SKY/WX    TMP DP  RH WIND       PRES   REMARKS
BISMARCK       MOCLDY    41  31  67 NW12      29.83R
DICKINSON      CLOUDY    38  33  82 W10       29.88R
GARRISON         N/A     38  32  79 NW18      29.80S
HETTINGER ARPT MOCLDY    36  31  82 NW10      29.92R
$$

NDZ004>008-012>016-024-026-027-054-261200-
NORTHEAST NORTH DAKOTA

CITY           SKY/WX    TMP DP  RH WIND       PRES   REMARKS
GRAND FORKS    PTCLDY    35  29  78 NW10      29.64R
GRND FRKS AFB  PTCLDY    37  30  77 NW10      29.65R
DEVILS LAKE    PTCLDY    36  30  80 W22       29.68S
$$

NDZ022-023-025-028>030-036>039-047>053-261200-
SOUTHEAST NORTH DAKOTA

CITY           SKY/WX    TMP DP  RH WIND       PRES   REMARKS
FARGO          CLEAR     32  29  88 W9        29.66R
JAMESTOWN      PTCLDY    37  31  78 NW12      29.73R
$$




USA.gov is the U.S. government's official web portal to all federal, state and local government web resources and services.